Find Local Weather

World > North America > United States > North Carolina

Raleigh, North Carolina Regional Weather

Lat: 35.82N, Lon: 78.66W
Wx Zone: NCZ041
Warning FLW WEATHER ALERT - (More Info. Click Here) Warning
Feedback
Expires:201808220400;;437816
ASUS42 KRAH 220310
RWRRAH
NORTH CAROLINA WEATHER ROUNDUP
NATIONAL WEATHER SERVICE RALEIGH NC
1100 PM EDT TUE AUG 21 2018

NOTE: "FAIR" INDICATES FEW OR NO CLOUDS BELOW 12,000 FEET WITH NO
SIGNIFICANT WEATHER AND/OR OBSTRUCTIONS TO VISIBILITY.


NCZ021-022-025-041-071-084-088-220400-
CENTRAL NORTH CAROLINA
  
CITY           SKY/WX    TMP DP  RH WIND       PRES   REMARKS
CHARLOTTE      MOCLDY    73  72  96 S5        29.99S                  
GREENSBORO     CLOUDY    73  72  96 NW6       29.97R THUNDER          
WINSTON-SALEM  TSTM      73  72  96 W3        29.99S FOG              
RALEIGH-DURHAM MOCLDY    79  72  79 SW9       29.96S                  
FORT BRAGG     FAIR      80  72  75 SW8       29.97R                  
FAYETTEVILLE   FAIR      79  72  79 SW8       29.98R                  
BURLINGTON     FAIR      77  73  87 S3        29.95S                  
LAURINBURG     FAIR      79  73  82 SW6       30.00R                  
$$
 

SKY/WX - Weather  TMP - Temperature  DP - Dewpoint  RH - Relative Humidity
WIND - Wind Direction/Speed PRES - Barometric Pressure